Regional Weather Roundup
Issued by NWS

Home | Current Version | Previous Version | Graphics & Text | Print | Product List | Glossary On
Versions: 1 2 3 4 5 6 7 8 9 10 11 12 13 14 15 16 17 18 19 20 21 22 23 24 25 26 27 28 29 30 31 32 33 34 35 36 37 38 39 40 41 42 43 44 45 46 47 48 49 50
000
ASUS43 KTOP 260908
RWRKS

WEATHER ROUNDUP FOR KANSAS
NATIONAL WEATHER SERVICE GOODLAND KS
400 AM CDT TUE MAY 26 2015

NOTE:  "FAIR" INDICATES FEW OR NO CLOUDS BELOW 12,000 FEET WITH NO
SIGNIFICANT WEATHER AND/OR OBSTRUCTIONS TO VISIBILITY.

KSZ001>006-013>018-027>032-041>047-261000-
NORTHWEST KANSAS

CITY           SKY/WX    TMP DP  RH WIND       PRES   REMARKS
GOODLAND       PTCLDY    49  46  90 NW9       29.93F
HAYS           CLOUDY    55  46  71 W5        29.85R
HILL CITY      MOCLDY    56  51  84 NW14      29.85S
RUSSELL        CLOUDY    58  57  97 W9        29.81S
$$

KSZ061>065-074>080-084>089-261000-
SOUTHWEST KANSAS

CITY           SKY/WX    TMP DP  RH WIND       PRES   REMARKS
DODGE CITY     PTCLDY    56  51  84 NW7       29.90S
ELKHART          N/A     54  49  83 NW6         N/A
GARDEN CITY    CLEAR     53  48  83 N12       29.90S
GREAT BEND     CLOUDY    59  54  82 SW10      29.83S
LIBERAL        CLEAR     55  48  76 CALM      29.92R
PRATT          CLOUDY    55  54  94 W6        29.88S
$$

KSZ066>073-081>083-090>101-261000-
SOUTHEAST KANSAS

CITY           SKY/WX    TMP DP  RH WIND       PRES   REMARKS
CHANUTE        LGT RAIN  61  60  97 CALM      29.82S FOG
COFFEYVILLE    MOCLDY    60  60 100 S3        29.83R
HUTCHINSON     CLOUDY    59  55  87 CALM      29.82S
MEDICINE LODGE   N/A     57  55  93 NW5       29.86S
NEWTON         CLOUDY    57  52  82 S5        29.84F
PARSONS        CLOUDY    62  61  96 CALM      29.84R
WICHITA INTL   CLOUDY    60  58  92 CALM      29.81F
WICHITA JABRA  CLOUDY    59  57  93 E5        29.81F
WICHITA MCCONL CLOUDY    59  57  94 NW2       29.82F
WINFIELD       CLOUDY    59  58  96 S5        29.83F
$$

KSZ007>012-019>026-033>040-048>060-102>105-261000-
NORTHEAST KANSAS

CITY           SKY/WX    TMP DP  RH WIND       PRES   REMARKS
CONCORDIA      CLOUDY    58  56  93 S7        29.79F
EMPORIA        CLOUDY    59  59 100 SE3       29.79F
LAWRENCE       LGT RAIN  61  58  90 NW6       29.77F
MANHATTAN      CLOUDY    61  59  93 CALM      29.79F
OLATHE IND     RAIN      61  60  97 NW6       29.79F FOG
OLATHE EXE     LGT RAIN  61  60  97 NW9       29.77F
SALINA         LGT RAIN  60  57  89 S7        29.80F
TOPEKA BILLARD LGT RAIN  61  59  93 N5        29.76F
TOPEKA FORBES  LGT RAIN  62  59  90 NW3       29.76F
$$



USA.gov is the U.S. government's official web portal to all federal, state and local government web resources and services.